Tracking 19484 objects as of 20-Jan-2019
HD Live streaming from Space Station
objects crossing your sky now

FENGYUN 1C DEB

Track FENGYUN 1C DEB now!
10-day predictions


NORAD ID: 30360
Int'l Code: 1999-025ABX
Perigee: 828.5 km
Apogee: 883.1 km
Inclination: 99.0 °
Period: 101.9 minutes
Semi major axis: 7226 km
RCS: 0.0134 m2 (small)
Launch date: May 10, 1999
Source: People's Republic of China (PRC)
Launch site: Taiyaun Space Center, China (TSC)

Note: This is SATELLITE DEBRIS
aabbcc
Your satellite tracking list
Your tracking list is empty




NASA's NSSDC Master Catalog

Two Line Element Set (TLE):
1 30360U 99025ABX 19018.63917894 +.00000475 +00000-0 +27635-3 0  9995
2 30360 098.9566 066.0935 0037805 138.9184 345.5199 14.13138132617370
Source of the keplerian elements: AFSPC